Regional Weather Roundup
Issued by NWS Newport/Morehead, NC

Current Version | Previous Version | Graphics & Text | Print | Product List | Glossary Off
Versions: 1 2 3 4 5 6 7 8 9 10 11 12 13 14 15 16 17 18 19 20 21 22 23 24 25 26 27 28 29 30 31 32 33 34 35 36 37 38 39 40 41 42 43 44 45 46 47 48 49 50

000
ASUS42 KMHX 190422
RWRMHX
WEATHER ROUNDUP FOR EASTERN NORTH CAROLINA
NATIONAL WEATHER SERVICE NEWPORT/MOREHEAD CITY NC
1200 AM EDT FRI SEP 19 2014

NOTE: "FAIR" INDICATES FEW OR NO CLOUDS BELOW 12,000 FEET
WITH NO SIGNIFICANT WEATHER AND/OR OBSTRUCTIONS TO VISIBILITY

NCZ015>017-031-032-045>047-102-103-190500-
NORTH COAST

CITY           SKY/WX    TMP DP  RH WIND       PRES   REMARKS
EDENTON        PTCLDY    62  59  93 CALM      30.08S
ELIZABETH CITY PTCLDY    65  58  78 CALM      30.08S
KITTY HAWK     PTCLDY    70  56  60 E6        30.07R
MANTEO         MOCLDY    69  57  65 E7        30.08R

$$

NCZ045>047-081-094-103-104-190500-
CENTRAL COAST

CITY           SKY/WX    TMP DP  RH WIND       PRES   REMARKS
FRISCO         CLEAR     66  59  78 NE6       30.06R
SWANQUARTER      N/A     64 N/A N/A NE5       30.03S

$$

NCZ095-097-098-100-101-190500-
SOUTHERN COAST

CITY           SKY/WX    TMP DP  RH WIND       PRES   REMARKS
BEAUFORT       CLEAR     67  61  81 NE6       30.05R
CEDAR ISLAND     N/A     73 N/A N/A NE8G17    30.09S
JACKSONVILLE   CLEAR     69  59  70 E10       30.05R
NEWPORT        NOT AVBL
PINEY ISLAND   CLEAR     75  58  55 E12       30.05S
WILMINGTON     CLEAR     68  62  81 N3        30.04R


$$

NCZ011>013-027>030-043-044-078>080-089-090>093-098-190500-
COASTAL PLAIN

CITY           SKY/WX    TMP DP  RH WIND       PRES   REMARKS
AHOSKIE        PTCLDY    59  57  92 CALM      30.09S
CLINTON        CLEAR     65  63  91 CALM      30.07R
ELIZABETHTOWN  CLEAR     67  63  85 CALM      30.05S
GOLDSBORO      CLEAR     64  63  98 CALM      30.06R
GREENVILLE     CLEAR     63  59  88 CALM      30.09S
HAVELOCK       CLEAR     66  60  81 NE5       30.07R
KENANSVILLE    CLEAR     62  59  90 CALM      30.08R
KINSTON        CLEAR     65  60  86 CALM      30.08S
NEW BERN       CLEAR     66  59  78 NE5       30.08R
RICHLANDS      CLEAR     63  57  82 E5        30.07R
ROANOKE RAPIDS NOT AVBL
ROCKY MOUNT    PTCLDY    64  58  80 CALM      30.08R
WASHINGTON     CLEAR     62  57  83 CALM      30.08S
WHITEVILLE     CLEAR     68  65  89 CALM      30.03F

$$

AMZ130-135-150-152-154-156-158-170-250-252-270-ANZ085-086-088-633-658-670-190500-
MARINE OBSERVATIONS

STATION/POSITION TIME  TEMP    WIND        PRES    WAVE   SWELL
                       AIR SEA DIR/SP/G            HT/PER HT/PER
                 (UTC) (F)     (DEG/KT/KT) (MB)    (FT/S) (FT/S)
CHESAPEAKE LIGHT 0400   71     130/  7/  8 1019.2
BUOY 44014       0400   72 72   50/ 10/ 12 1017.9    4/12   3/12
DUCK             0400   72 75   70/ 10/ 12 1017.8
2E DUCK          0400                        N/A     3/11   2/11
OREGON INLET     0400   71 74   60/  7/ 12 1018.1
BUOY 44095       0400      76                N/A     4/13   2/13
20E OREGON INLET NOT AVBL
HATTERAS CG      0400   71 77   60/  5/  8 1018.1
DIAMOND BUOY     0400   73      10/ 12/ 16 1017.4    4/ 8   3/ 8
CAPE LOOKOUT     0400   76      60/ 16/ 18 1017.1
BEAUFORT LAB     0400   68 78   20/  5/  8 1017.1
30 SE NEW RIVER  0400   78 83   80/ 14/ 17 1017.2    4/ 5   2/11
5 SE WRIGHTSVILL 0400   74 81   80/ 14/ 16   N/A
BUOY 41002       0346   79 82   80/ 12/ 14 1015.9    3/10   3/10
BUOY 41004       0400   81 83   90/  8/ 10 1015.0    3/10   3/10

$$



USA.gov is the U.S. government's official web portal to all federal, state and local government web resources and services.